When you browse on this site, cookies collect data to enhance your experience and personalize the content and advertising you see.
Visit our Privacy Policy to learn more. By continuing to use the site, you agree to this use of cookies and data.
  • Em Portugal
  • Lista de países
  • Para 7 dias
  • Temperatura da água
  • Mapas de satélite
  • Mapa do tempo
  • Widgets de tempo
  • user-avatar
    Iniciar Sessão

    Previsão horária em Staraya Mihaylovka

    Hoje, 20 Junho, Quinta-feira

    Tempo Temperatura Precipitação Vento Pressão Humidade
    00:00 +18°C° 0 mm 1 m/s 747 mmHg 87%
    01:00 +16°C° 0 mm 1 m/s 748 mmHg 87%
    02:00 +16°C° 0 mm 1 m/s 748 mmHg 88%
    03:00 +16°C° 0 mm 1 m/s 748 mmHg 88%
    04:00 +18°C° 0 mm 1 m/s 748 mmHg 87%
    05:00 +19°C° 0 mm 1 m/s 749 mmHg 86%
    06:00 +20°C° 0 mm 1 m/s 749 mmHg 85%
    07:00 +20°C° 0 mm 2 m/s 749 mmHg 81%
    08:00 +23°C° 0 mm 2 m/s 749 mmHg 76%
    09:00 +24°C° 0 mm 2 m/s 749 mmHg 70%
    10:00 +25°C° 0.1 mm 3 m/s 749 mmHg 66%
    11:00 +26°C° 0.1 mm 3 m/s 749 mmHg 62%
    12:00 +27°C° 0.1 mm 3 m/s 749 mmHg 57%
    13:00 +27°C° 0 mm 3 m/s 749 mmHg 55%
    14:00 +27°C° 0 mm 3 m/s 749 mmHg 54%
    15:00 +27°C° 0 mm 3 m/s 749 mmHg 52%
    16:00 +27°C° 0 mm 2 m/s 749 mmHg 56%
    17:00 +26°C° 0 mm 2 m/s 749 mmHg 61%
    18:00 +26°C° 0 mm 1 m/s 749 mmHg 66%
    19:00 +24°C° 0 mm 1 m/s 749 mmHg 68%
    20:00 +22°C° 0 mm 1 m/s 750 mmHg 71%
    21:00 +20°C° 0 mm 1 m/s 750 mmHg 73%
    22:00 +20°C° 0 mm 1 m/s 750 mmHg 74%
    23:00 +19°C° 0 mm 1 m/s 750 mmHg 75%

    Amanhã, 21 Junho, Sexta-feira

    Tempo Temperatura Precipitação Vento Pressão Humidade
    00:00 +19°C° 0 mm 1 m/s 750 mmHg 76%
    01:00 +18°C° 0 mm 1 m/s 750 mmHg 77%
    02:00 +18°C° 0 mm 1 m/s 751 mmHg 79%
    03:00 +16°C° 0 mm 1 m/s 751 mmHg 80%
    04:00 +19°C° 0 mm 1 m/s 751 mmHg 78%
    05:00 +20°C° 0 mm 1 m/s 751 mmHg 77%
    06:00 +21°C° 0 mm 1 m/s 751 mmHg 76%
    07:00 +22°C° 0 mm 1 m/s 751 mmHg 72%
    08:00 +23°C° 0 mm 1 m/s 752 mmHg 68%
    09:00 +25°C° 0 mm 1 m/s 752 mmHg 64%
    10:00 +26°C° 0 mm 1 m/s 752 mmHg 59%
    11:00 +27°C° 0 mm 1 m/s 752 mmHg 55%
    12:00 +28°C° 0 mm 1 m/s 752 mmHg 50%
    13:00 +28°C° 0 mm 1 m/s 752 mmHg 48%
    14:00 +28°C° 0 mm 1 m/s 751 mmHg 46%
    15:00 +28°C° 0 mm 1 m/s 751 mmHg 45%
    16:00 +28°C° 0 mm 1 m/s 751 mmHg 49%
    17:00 +28°C° 0 mm 1 m/s 751 mmHg 54%
    18:00 +27°C° 0 mm 1 m/s 751 mmHg 59%
    19:00 +25°C° 0 mm 1 m/s 751 mmHg 60%
    20:00 +23°C° 0 mm 1 m/s 751 mmHg 62%
    21:00 +20°C° 0 mm 2 m/s 751 mmHg 63%
    22:00 +20°C° 0 mm 2 m/s 751 mmHg 63%
    23:00 +20°C° 0 mm 2 m/s 751 mmHg 63%

    Depois de amanhã, 22 Junho, Sábado

    Tempo Temperatura Precipitação Vento Pressão Humidade
    00:00 +20°C° 0 mm 2 m/s 752 mmHg 63%
    01:00 +20°C° 0 mm 2 m/s 751 mmHg 65%
    02:00 +19°C° 0 mm 2 m/s 751 mmHg 67%
    03:00 +19°C° 0 mm 2 m/s 751 mmHg 69%
    04:00 +19°C° 0 mm 2 m/s 751 mmHg 72%
    05:00 +20°C° 0 mm 2 m/s 751 mmHg 74%
    06:00 +20°C° 0 mm 2 m/s 752 mmHg 77%
    07:00 +23°C° 0 mm 2 m/s 752 mmHg 75%
    08:00 +24°C° 0 mm 3 m/s 752 mmHg 72%
    09:00 +25°C° 0 mm 3 m/s 752 mmHg 70%
    10:00 +26°C° 0.1 mm 3 m/s 752 mmHg 67%
    11:00 +27°C° 0.1 mm 3 m/s 752 mmHg 64%
    12:00 +27°C° 0.1 mm 3 m/s 752 mmHg 62%
    13:00 +27°C° 0.2 mm 4 m/s 752 mmHg 62%
    14:00 +28°C° 0.2 mm 4 m/s 751 mmHg 61%
    15:00 +28°C° 0.2 mm 4 m/s 751 mmHg 61%
    16:00 +28°C° 0.1 mm 4 m/s 751 mmHg 65%
    17:00 +27°C° 0.1 mm 3 m/s 751 mmHg 69%
    18:00 +27°C° 0.1 mm 3 m/s 751 mmHg 74%
    19:00 +26°C° 0 mm 3 m/s 751 mmHg 75%
    20:00 +24°C° 0 mm 3 m/s 751 mmHg 77%
    21:00 +21°C° 0 mm 3 m/s 751 mmHg 78%
    22:00 +21°C° 0 mm 3 m/s 751 mmHg 79%
    23:00 +20°C° 0 mm 3 m/s 751 mmHg 79%

    23 Junho, Domingo

    Tempo Temperatura Precipitação Vento Pressão Humidade
    00:00 +19°C° 0 mm 3 m/s 751 mmHg 80%
    01:00 +19°C° 0 mm 3 m/s 751 mmHg 81%
    02:00 +19°C° 0 mm 3 m/s 751 mmHg 83%
    03:00 +19°C° 0 mm 3 m/s 751 mmHg 84%
    04:00 +19°C° 0 mm 3 m/s 751 mmHg 83%
    05:00 +20°C° 0 mm 3 m/s 751 mmHg 82%
    06:00 +21°C° 0 mm 3 m/s 751 mmHg 81%
    07:00 +22°C° 0 mm 4 m/s 751 mmHg 77%
    08:00 +25°C° 0 mm 4 m/s 751 mmHg 74%
    09:00 +27°C° 0 mm 4 m/s 751 mmHg 70%
    10:00 +27°C° 0 mm 4 m/s 751 mmHg 66%
    11:00 +28°C° 0 mm 4 m/s 751 mmHg 62%
    12:00 +29°C° 0 mm 4 m/s 751 mmHg 59%
    13:00 +30°C° 0 mm 4 m/s 751 mmHg 58%
    14:00 +30°C° 0 mm 4 m/s 751 mmHg 58%
    15:00 +30°C° 0 mm 4 m/s 751 mmHg 57%
    16:00 +29°C° 0.1 mm 4 m/s 750 mmHg 63%
    17:00 +29°C° 0.1 mm 3 m/s 750 mmHg 68%
    18:00 +28°C° 0.1 mm 3 m/s 750 mmHg 74%
    19:00 +26°C° 0.1 mm 2 m/s 750 mmHg 78%
    20:00 +25°C° 0.1 mm 2 m/s 750 mmHg 83%
    21:00 +23°C° 0.1 mm 1 m/s 751 mmHg 87%
    22:00 +22°C° 0 mm 1 m/s 751 mmHg 89%
    23:00 +22°C° 0 mm 1 m/s 751 mmHg 90%

    24 Junho, Segunda-feira

    Tempo Temperatura Precipitação Vento Pressão Humidade
    00:00 +20°C° 0 mm 2 m/s 751 mmHg 92%
    01:00 +19°C° 0 mm 2 m/s 751 mmHg 92%
    02:00 +19°C° 0 mm 2 m/s 751 mmHg 92%
    03:00 +18°C° 0 mm 2 m/s 751 mmHg 92%
    04:00 +18°C° 0 mm 3 m/s 751 mmHg 88%
    05:00 +18°C° 0 mm 3 m/s 752 mmHg 84%
    06:00 +18°C° 0 mm 3 m/s 752 mmHg 80%
    07:00 +19°C° 0 mm 3 m/s 752 mmHg 75%
    08:00 +20°C° 0 mm 4 m/s 752 mmHg 70%
    09:00 +21°C° 0 mm 4 m/s 753 mmHg 65%
    10:00 +22°C° 0 mm 4 m/s 753 mmHg 61%
    11:00 +23°C° 0 mm 4 m/s 753 mmHg 56%
    12:00 +25°C° 0 mm 4 m/s 753 mmHg 51%
    13:00 +23°C° 0 mm 4 m/s 753 mmHg 52%
    14:00 +23°C° 0 mm 4 m/s 753 mmHg 52%
    15:00 +23°C° 0 mm 5 m/s 753 mmHg 53%
    16:00 +22°C° 0 mm 4 m/s 753 mmHg 58%
    17:00 +22°C° 0 mm 4 m/s 753 mmHg 63%
    18:00 +21°C° 0 mm 4 m/s 753 mmHg 67%
    19:00 +19°C° 0 mm 3 m/s 753 mmHg 68%
    20:00 +17°C° 0 mm 3 m/s 754 mmHg 69%
    21:00 +16°C° 0 mm 3 m/s 754 mmHg 70%
    22:00 +14°C° 0 mm 3 m/s 754 mmHg 71%
    23:00 +14°C° 0 mm 2 m/s 754 mmHg 72%

    25 Junho, Terça-feira

    Tempo Temperatura Precipitação Vento Pressão Humidade
    00:00 +13°C° 0 mm 2 m/s 754 mmHg 73%
    01:00 +13°C° 0 mm 2 m/s 754 mmHg 76%
    02:00 +12°C° 0 mm 2 m/s 754 mmHg 79%
    03:00 +10°C° 0 mm 2 m/s 754 mmHg 82%
    04:00 +12°C° 0 mm 2 m/s 754 mmHg 81%
    05:00 +13°C° 0 mm 2 m/s 755 mmHg 80%
    06:00 +13°C° 0 mm 3 m/s 755 mmHg 79%
    07:00 +16°C° 0 mm 3 m/s 755 mmHg 74%
    08:00 +17°C° 0 mm 3 m/s 755 mmHg 68%
    09:00 +18°C° 0 mm 3 m/s 755 mmHg 62%
    10:00 +19°C° 0 mm 4 m/s 755 mmHg 60%
    11:00 +19°C° 0 mm 4 m/s 755 mmHg 59%
    12:00 +20°C° 0 mm 5 m/s 755 mmHg 57%
    13:00 +20°C° 0 mm 5 m/s 755 mmHg 57%
    14:00 +19°C° 0 mm 6 m/s 754 mmHg 56%
    15:00 +19°C° 0 mm 6 m/s 754 mmHg 56%
    16:00 +19°C° 0 mm 5 m/s 754 mmHg 59%
    17:00 +17°C° 0 mm 5 m/s 754 mmHg 63%
    18:00 +17°C° 0 mm 4 m/s 754 mmHg 66%
    19:00 +16°C° 0 mm 3 m/s 754 mmHg 70%
    20:00 +13°C° 0 mm 3 m/s 754 mmHg 74%
    21:00 +13°C° 0 mm 2 m/s 754 mmHg 78%
    22:00 +12°C° 0 mm 2 m/s 754 mmHg 80%
    23:00 +10°C° 0 mm 2 m/s 754 mmHg 83%
    Mostrar mais